Change the Weather History Date:

Friday, January 31, 2014

  Actual Average (VTBD) Record (VTBD)
Temperature  
Mean Temperature 82 °F -  
Max Temperature 93 °F 91 °F 93 °F (1997)
Min Temperature 70 °F 73 °F 66 °F (2007)
Cooling Degree Days 16    
Growing Degree Days 32 (Base 50)    
Moisture  
Dew Point 60 °F    
Average Humidity 54    
Maximum Humidity 88    
Minimum Humidity 20    
Precipitation  
Precipitation 0.00 in 0.03 in - ()
Sea Level Pressure  
Sea Level Pressure 29.94 in    
Wind  
Wind Speed 4 mph ()    
Max Wind Speed 13 mph    
Max Gust Speed -    
Visibility 4.5 miles    
Events      
Averages and records for this station are not official NWS values.
T = Trace of Precipitation, MM = Missing Value Source: Averaged Metar Reports

Daily Weather History Graph

Daily Weather History Graph

Search for Another Location

Airport or City:

Trip Planner

Search our weather history database for the weather conditions in past years. The results will help you decide how hot, cold, wet, or windy it might be!

Date:

Astronomy

Jan. 31, 2014 Rise Set
Actual Time 6:42 AM ICT 6:16 PM ICT
Civil Twilight 6:20 AM ICT 6:38 PM ICT
Nautical Twilight 5:55 AM ICT 7:03 PM ICT
Astronomical Twilight 5:29 AM ICT 7:29 PM ICT
Moon 6:41 AM ICT (1/31) 6:46 PM ICT (1/31)
Length of Visible Light 12h 17m
Length of Day
11h 33m
New Moon, 0% of the Moon is Illuminated
Jan 31
New Moon
Feb 7
First Quarter
Feb 15
Full
Feb 23
Last Quarter
Mar 1
New

Hourly Weather History & Observations

Time (ICT) Temp. Heat Index Dew Point Humidity Pressure Visibility Wind Dir Wind Speed Gust Speed Precip Events Conditions
12:00 AM 75.2 °F - 69.8 °F 83% 29.98 in 3.7 mi NE 3.5 mph - N/A   Unknown
12:30 AM 73.4 °F - 68.0 °F 83% 29.98 in 3.1 mi East 2.3 mph - N/A   Mist
1:00 AM 74 °F - 64 °F 64% 29.94 in 4 mi Calm Calm - -   Mist
1:00 AM 73.4 °F - 68.0 °F 83% 29.95 in 3.1 mi Calm Calm - N/A   Mist
1:30 AM 73.4 °F - 69.8 °F 88% 29.95 in 2.5 mi Calm Calm - N/A   Mist
2:00 AM 73.4 °F - 69.8 °F 88% 29.95 in 2.5 mi Calm Calm - N/A   Mist
2:30 AM 73.4 °F - 68.0 °F 83% 29.95 in 2.5 mi Calm Calm - N/A   Mist
3:00 AM 71.6 °F - 68.0 °F 88% 29.92 in 2.5 mi Calm Calm - N/A   Mist
3:30 AM 73.4 °F - 66.2 °F 78% 29.92 in 3.7 mi ENE 5.8 mph - N/A   Unknown
4:00 AM 72 °F - 66 °F 75% 29.92 in 4 mi Calm Calm - -   Mist
4:00 AM 73.4 °F - 62.6 °F 69% 29.92 in 4.3 mi East 4.6 mph - N/A   Unknown
4:30 AM 73.4 °F - 60.8 °F 65% 29.92 in 5.0 mi East 4.6 mph - N/A   Unknown
5:00 AM 73.4 °F - 59.0 °F 61% 29.92 in 5.6 mi ENE 3.5 mph - N/A   Unknown
5:30 AM 73.4 °F - 59.0 °F 61% 29.92 in 5.6 mi East 4.6 mph - N/A   Unknown
6:00 AM 73.4 °F - 59.0 °F 61% 29.95 in 5.6 mi East 4.6 mph - N/A   Unknown
6:30 AM 73.4 °F - 59.0 °F 61% 29.95 in 5.6 mi East 4.6 mph - N/A   Unknown
7:00 AM 73 °F - 60 °F 56% 29.95 in 4 mi East 3.5 mph - -   Haze
7:00 AM 73.4 °F - 59.0 °F 61% 29.95 in 5.6 mi East 5.8 mph - N/A   Unknown
7:30 AM 73.4 °F - 60.8 °F 65% 29.98 in 5.6 mi ENE 6.9 mph - N/A   Unknown
8:00 AM 75.2 °F - 59.0 °F 57% 29.98 in - ENE 4.6 mph - N/A   Clear
8:30 AM 77.0 °F - 59.0 °F 54% 30.01 in - East 8.1 mph - N/A   Clear
9:00 AM 78.8 °F - 57.2 °F 47% 30.01 in - East 10.4 mph - N/A   Clear
9:30 AM 78.8 °F - 57.2 °F 47% 30.01 in - East 11.5 mph - N/A   Clear
10:00 AM 86 °F - 56 °F 25% 30.00 in 5 mi NE 6.9 mph - -   Haze
10:00 AM 80.6 °F 81.1 °F 59.0 °F 48% 30.04 in - East 11.5 mph - N/A   Clear
10:30 AM 80.6 °F 80.8 °F 57.2 °F 45% 30.04 in - East 10.4 mph - N/A   Clear
11:00 AM 82.4 °F 82.0 °F 57.2 °F 42% 30.01 in - East 11.5 mph - N/A   Clear
11:30 AM 84.2 °F 83.5 °F 57.2 °F 40% 30.01 in - East 11.5 mph - N/A   Clear
12:00 PM 86.0 °F 84.2 °F 53.6 °F 33% 29.98 in - East 12.7 mph - N/A   Clear
12:30 PM 87.8 °F 85.7 °F 53.6 °F 31% 29.98 in - East 11.5 mph - N/A   Clear
1:00 PM 91 °F - 55 °F 20% 29.93 in 5 mi Calm Calm - -   Haze
1:00 PM 87.8 °F 85.7 °F 53.6 °F 31% 29.95 in - East 10.4 mph - N/A   Clear
1:30 PM 87.8 °F 86.1 °F 55.4 °F 33% 29.95 in - East 10.4 mph - N/A   Clear
2:00 PM 87.8 °F - 51.8 °F 29% 29.92 in - East 8.1 mph - N/A   Clear
2:30 PM 89.6 °F - 48.2 °F 24% 29.92 in - East 10.4 mph - N/A   Clear
3:00 PM 89.6 °F - 46.4 °F 22% 29.89 in - ENE 8.1 mph - N/A   Clear
3:30 PM 89.6 °F - 50.0 °F 26% 29.89 in - ESE 6.9 mph - N/A   Clear
4:00 PM 90 °F - 63 °F 30% 29.87 in 5 mi Calm Calm - -   Haze
4:00 PM 89.6 °F - 48.2 °F 24% 29.89 in - East 3.5 mph - N/A   Clear
4:30 PM 89.6 °F - 50.0 °F 26% 29.89 in - Variable 4.6 mph - N/A   Clear
5:00 PM 89.6 °F - 48.2 °F 24% 29.89 in - ESE 4.6 mph - N/A   Clear
5:30 PM 89.6 °F - 48.2 °F 24% 29.89 in - Calm Calm - N/A   Clear
6:00 PM 86.0 °F - 50.0 °F 29% 29.89 in - Calm Calm - N/A   Clear
6:30 PM 82.4 °F 82.9 °F 60.8 °F 48% 29.89 in - SSW 9.2 mph - N/A   Clear
7:00 PM 81 °F - 67 °F 53% 29.89 in 5 mi ENE 5.8 mph - -   Haze
7:00 PM 80.6 °F 82.3 °F 64.4 °F 58% 29.89 in - SSW 11.5 mph - N/A   Clear
7:30 PM 80.6 °F 82.7 °F 66.2 °F 61% 29.92 in - SSW 10.4 mph - N/A   Clear
8:00 PM 78.8 °F - 68.0 °F 69% 29.92 in - SSW 11.5 mph - N/A   Clear
8:30 PM 78.8 °F - 68.0 °F 69% 29.95 in 5.6 mi SSW 11.5 mph - N/A   Unknown
9:00 PM 78.8 °F - 68.0 °F 69% 29.95 in 5.6 mi SSW 9.2 mph - N/A   Unknown
9:30 PM 78.8 °F - 66.2 °F 65% 29.95 in 5.6 mi SW 8.1 mph - N/A   Unknown
10:00 PM 78 °F - 66 °F 59% 29.94 in 5 mi NE 4.6 mph - -   Mist
10:00 PM 77.0 °F - 64.4 °F 65% 29.95 in - SW 6.9 mph - N/A   Clear
10:30 PM 75.2 °F - 64.4 °F 69% 29.95 in - SSW 4.6 mph - N/A   Clear
11:00 PM 77.0 °F - 64.4 °F 65% 29.95 in - South 3.5 mph - N/A   Clear
11:30 PM 75.2 °F - 64.4 °F 69% 29.95 in - South 3.5 mph - N/A   Clear